Home > Weather > Cape Dorset > Past weeks

Flag for Canada Past Weather in Cape Dorset, Nunavut, Canada — Yesterday and Last 2 Weeks

Now
37 °F

Fog.


Feels Like: 31 °F
Forecast: 41 / 48 °F
Wind: 8 mph from Southeast

Location: Cape Dorset

Current Time: Jul 25, 2016 at 8:00:31 AM

Latest Report: Jul 25, 2016 at 7:00 AM


Visibility: 0 mi

Pressure: 30.04 "Hg

Humidity: 100%

Dew Point: 37 °F

Location of Cape DorsetLocation

Past Weather in Cape Dorset — Graph

°F

Cape Dorset Temperature Yesterday

Maximum temperature yesterday: 54 °F (at 3:00 PM)
Minimum temperature yesterday: 39 °F (at 5:00 AM)
Average temperature yesterday: 48 °F

High & Low Weather Summary for the Past Weeks

 TemperatureHumidityPressure
High57 °F (Jul 10, 10:00 AM)100% (Jul 11, 4:45 AM)30.03 "Hg (Jul 11, 4:45 AM)
Low34 °F (Jul 17, 2:00 AM)63% (Jul 10, 6:00 PM)29.07 "Hg (Jul 16, 7:58 AM)
Average43 °F90%29.62 "Hg
* Reported Jul 10 6:00 AM — Jul 25 6:00 AM, Cape Dorset, Weather by CustomWeather, © 2016

Note: Actual official high and low records may vary slightly from our data, if they occured in-between our weather recording intervals... More about our weather records

Advertising

Cape Dorset Weather History for the Previous 24 Hours

Scroll right to see more
 ConditionsComfort  
Time TempWeatherWind HumidityBarometerVisibility
6:00 AM
Mon, Jul 25
37 °FFog.10 mph100%30.03 "Hg0 mi
5:54 AM39 °FFog.9 mph100%30.03 "Hg0 mi
5:00 AM39 °FOvercast.5 mph93%30.03 "Hg9 mi
4:00 AM43 °FPassing clouds.2 mph87%30.02 "Hg9 mi
3:00 AM45 °FClear.No wind87%30.03 "Hg9 mi
2:00 AM45 °FPassing clouds.No wind87%30.02 "Hg9 mi
1:00 AM46 °FClear.5 mph82%30.01 "Hg9 mi
12:00 AM46 °FClear.8 mph82%30.01 "Hg9 mi
11:00 PM
Sun, Jul 24
46 °FSunny.2 mph82%30.00 "Hg9 mi
10:00 PM48 °FSunny.5 mph82%29.98 "Hg9 mi
9:00 PM50 °FSunny.8 mph76%29.98 "Hg9 mi
8:00 PM52 °FSunny.7 mph72%29.97 "Hg9 mi
7:00 PM52 °FPassing clouds.10 mph72%29.97 "Hg9 mi
6:00 PM54 °FSunny.13 mph72%29.95 "Hg9 mi
5:00 PM52 °FPartly sunny.14 mph77%29.95 "Hg9 mi
4:00 PM54 °FPartly sunny.10 mph77%29.94 "Hg9 mi
3:00 PM54 °FScattered clouds.14 mph72%29.94 "Hg9 mi
2:00 PM48 °FPartly sunny.18 mph82%29.93 "Hg9 mi
1:00 PM48 °FPassing clouds.13 mph76%29.93 "Hg9 mi
12:00 PM50 °FSunny.14 mph71%29.93 "Hg9 mi
11:00 AM50 °FSunny.5 mph76%29.92 "Hg9 mi
10:00 AM50 °FSunny.5 mph82%29.91 "Hg9 mi
9:00 AM48 °FSunny.5 mph87%29.90 "Hg9 mi
8:00 AM46 °FSunny.2 mph82%29.89 "Hg9 mi
Weather by CustomWeather, © 2016

See weather overviewHow to use our weather pages